Probability
0 0 0 0 0 0 0 0 0 0 0 0 0 0 0 0 0 0 0 0 0 0 0 0 0 0 0 0 0 0 0 0 0 0 0 0 0 0 0 0 0 0 0 0
0 0 0 0 0 0 0 0 0 0 0 0 0 0 0 0 0 0 0 0 0 0 0 0 0 0 0 0 0 0 0 0 0 0 0 0 0 0 0 0 0 0 0 0
0 0 0 0 0 0 0 0 0 0 0 0 0 0 0 0 0 0 0 0 0 0 0 0 0 0 0 0 0 0 0 0 0 0 0 0 0 0 0 0 0 0 0 0
0 0 0 0 0 0 0 0 0 0 0 0 0 0 0 0 0 0 0 0 0 0 0 0 0 0 0 0 0 0 0 0 0 0 0 0 0 0 0 0 0 0 0 0
0 0 0 0 0 0 0 0 0 0 0 0 0 0 0 0 0 0 0 0 0 0 0 0 0 0 0 0 0 0 0 0 0 0 0 0 0 0 0 0 0 0 0 0
0 0 0 0 0 0 0 0 0 0 0 0 0 0 0 0 0 0 0 0 0 0 0 0 0 0 0 0 0 0 0 0 0 0 0 0 0 0 0 0 0 0 0 0
0 0 0 0 0 0 0 0 0 0 0 0 0 0 0 0 0 0 0 0 0 0 0 0 0 0 0 0 0 0 0 0 0 0 0 0 0 0 0 0 0 0 0 0
0 0 0 0 0 0 0 0 0 0 0 0 0 0 0 0 0 0 0 0 0 0 0 0 0 0 0 0 0 0 0 0 0 0 0 0 0 0 0 0 0 0 0 0
0 0 0 0 0 0 0 0 0 0 0 0 0 0 0 0 0 0 0 0 0 0 0 0 0 0 0 0 0 0 0 0 0 0 0 0 0 0 0 0 0 0 0 0
0 0 0 0 0 0 0 0 0 0 0 0 0 0 0 0 0 0 0 0 0 0 0 0 0 0 0 0 0 0 0 0 0 0 0 0 0 0 0 0 0 0 0 0
0 0 0 0 0 0 0 0 0 0 0 0 0 0 0 0 0 0 0 0 0 0 0 0 0 0 0 0 0 0 0 0 0 0 0 0 0 0 0 0 0 0 0 0
0 0 0 0 0 0 0 0 0 0 0 0 0 0 0 0 0 0 0 0 0 0 0 0 0 0 0 0 0 0 0 0 0 0 0 0 0 0 0 0 0 0 0 0
0 0 0 0 0 0 0 0 0 0 0 0 0 0 0 0 0 0 0 0 0 0 0 0 0 0 0 0 0 0 0 0 0 0 0 0 0 0 0 0 0 0 0 0
0 0 0 0 0 0 0 0 0 0 0 0 0 0 0 0 0 0 0 0 0 0 0 0 0 0 0 0 0 0 0 0 0 0 0 0 0 0 0 0 0 0 0 0
0 0 0 0 0 0 0 0 0 0 0 0 0 0 0 0 0 0 0 0 0 0 0 0 0 0 0 0 0 0 0 0 0 0 0 0 0 0 0 0 0 0 0 0
0 0 0 0 0 0 0 0 0 0 0 0 0 0 0 0 0 0 0 0 0 0 0 0 0 0 0 0 0 0 0 0 0 0 0 0 0 0 0 0 0 0 0 0
0 0 0 0 0 0 0 0 0 0 0 0 0 0 0 0 0 0 0 0 0 0 0 0 0 0 0 0 0 0 0 0 0 0 0 0 0 0 0 0 0 0 0 0
0 0 0 0 0 0 0 0 0 0 0 0 0 0 0 0 0 0 0 0 0 0 0 0 0 0 0 0 0 0 0 0 0 0 0 0 0 0 0 0 0 0 0 0
0 0 0 0 0 0 0 0 0 0 0 0 0 0 0 0 0 0 0 0 0 0 0 0 0 0 0 0 0 0 0 0 0 0 0 0 0 0 0 0 0 0 0 0
0 0 0 0 0 0 0 0 0 0 0 0 0 0 0 0 0 0 0 0 0 0 0 0 0 0 0 0 0 0 0 0 0 0 0 0 0 0 0 0 0 0 0 0
0 0 0 0 0 0 0 0 0 0 0 0 0 0 0 0 0 0 0 0 0 0 0 0 0 0 0 0 0 0 0 0 0 0 0 0 0 0 0 0 0 0 0 0
0 0 0 0 0 0 0 0 0 0 0 0 0 0 0 0 0 0 0 0 0 0 0 0 0 0 0 0 0 0 0 0 0 0 0 0 0 0 0 0 0 0 0 0
0 0 0 0 0 0 0 0 0 0 0 0 0 0 0 0 0 0 0 0 0 0 0 0 0 0 0 0 0 0 0 0 0 0 0 0 0 0 0 0 0 0 0 0
0 0 0 0 0 0 0 0 0 0 0 0 0 0 0 0 0 0 0 0 0 0 0 0 0 0 0 0 0 0 0 0 0 0 0 0 0 0 0 0 0 0 0 0
0 0 0 0 0 0 0 0 0 0 0 0 0 0 0 0 0 0 0 0 0 0 0 0 0 0 0 0 0 0 0 0 0 0 0 0 0 0 0 0 0 0 0 0
0 0 0 0 0 0 0 0 0 0 0 0 0 0 0 0 0 0 0 0 0 0 0 0 0 0 0 0 0 0 0 0 0 0 0 0 0 0 0 0 0 0 0 0
0 0 0 0 0 0 0 0 0 0 0 0 0 0 0 0 0 0 0 0 0 0 0 0 0 0 0 0 0 0 0 0 0 0 0 0 0 0 0 0 0 0 0 0
Height
5821 5822 5824 5825 5826 5827 5828 5829 5830 5832 5833 5834 5833 5833 5833 5833 5834 5834 5833 5833 5833 5832 5832 5831 5830 5829 5828 5828 5827 5826 5825 5824 5823 5822 5821 5820 5819 5818 5817 5816 5815 5813 5812 5812
5815 5816 5816 5818 5820 5821 5822 5823 5824 5826 5827 5828 5828 5828 5828 5828 5829 5829 5829 5828 5828 5827 5827 5826 5825 5825 5824 5823 5822 5822 5821 5820 5819 5818 5817 5816 5815 5814 5813 5812 5811 5809 5808 5807
5808 5809 5809 5812 5814 5815 5816 5817 5818 5819 5822 5822 5822 5822 5822 5823 5823 5823 5823 5823 5823 5822 5821 5821 5820 5819 5819 5818 5818 5817 5816 5815 5814 5813 5812 5811 5810 5809 5808 5807 5806 5805 5804 5803
5801 5803 5803 5809 5808 5809 5810 5811 5812 5813 5814 5816 5816 5817 5817 5817 5817 5817 5817 5817 5817 5816 5816 5815 5814 5814 5813 5813 5812 5811 5811 5810 5809 5808 5807 5806 5805 5804 5803 5802 5801 5800 5799 5798
5795 5795 5797 5800 5801 5802 5803 5805 5806 5806 5807 5809 5810 5810 5811 5811 5811 5811 5811 5811 5811 5810 5810 5809 5808 5808 5807 5806 5806 5805 5805 5804 5803 5802 5802 5801 5799 5798 5797 5796 5795 5794 5793 5792
5788 5788 5790 5795 5795 5795 5797 5798 5800 5800 5800 5801 5802 5804 5805 5805 5804 5804 5804 5804 5804 5803 5803 5802 5802 5801 5801 5800 5799 5799 5798 5798 5797 5796 5795 5794 5793 5792 5791 5790 5789 5788 5787 5786
5780 5781 5783 5786 5787 5788 5790 5792 5793 5793 5793 5794 5795 5797 5798 5797 5797 5797 5797 5797 5797 5796 5796 5795 5794 5794 5794 5793 5792 5792 5791 5791 5790 5789 5788 5788 5786 5785 5784 5783 5782 5781 5780 5779
5773 5774 5778 5778 5779 5781 5782 5783 5784 5785 5786 5787 5788 5788 5789 5790 5790 5790 5790 5789 5789 5789 5788 5788 5787 5786 5786 5785 5785 5784 5783 5783 5782 5781 5781 5780 5779 5777 5776 5775 5774 5773 5773 5772
5766 5769 5770 5770 5771 5772 5774 5775 5776 5777 5779 5779 5780 5781 5781 5781 5781 5781 5781 5781 5781 5780 5780 5779 5779 5778 5778 5777 5776 5776 5775 5775 5774 5773 5772 5771 5770 5769 5768 5767 5766 5765 5765 5764
5757 5759 5761 5762 5762 5764 5765 5767 5768 5769 5771 5771 5772 5772 5773 5773 5773 5773 5772 5772 5771 5771 5771 5771 5770 5770 5769 5768 5768 5767 5767 5766 5765 5764 5764 5763 5762 5761 5759 5758 5758 5757 5756 5756
5748 5751 5752 5753 5754 5756 5757 5758 5760 5761 5762 5763 5763 5764 5764 5764 5764 5763 5763 5762 5762 5761 5761 5761 5761 5760 5760 5759 5758 5758 5758 5757 5756 5755 5755 5754 5753 5752 5751 5750 5749 5749 5749 5748
5740 5742 5742 5745 5746 5747 5748 5750 5751 5752 5753 5754 5754 5754 5754 5754 5754 5753 5752 5752 5751 5751 5751 5751 5751 5750 5750 5749 5749 5749 5749 5748 5747 5746 5746 5745 5744 5743 5742 5742 5741 5741 5740 5740
5730 5731 5733 5735 5736 5738 5739 5741 5742 5743 5744 5745 5745 5744 5744 5744 5743 5743 5742 5741 5741 5740 5740 5740 5740 5740 5740 5740 5739 5739 5739 5739 5738 5737 5737 5736 5735 5735 5734 5734 5733 5732 5731 5731
5720 5722 5723 5725 5727 5729 5730 5731 5733 5734 5735 5735 5735 5735 5735 5734 5734 5733 5733 5732 5731 5731 5731 5730 5731 5731 5730 5730 5730 5730 5729 5729 5729 5728 5728 5727 5726 5726 5725 5725 5725 5723 5723 5722
5711 5713 5714 5716 5718 5719 5721 5722 5723 5725 5725 5726 5726 5725 5725 5725 5725 5724 5723 5723 5722 5722 5722 5721 5721 5721 5721 5721 5721 5720 5720 5719 5719 5719 5718 5718 5718 5717 5717 5716 5716 5715 5715 5714
5703 5704 5705 5707 5709 5710 5711 5712 5714 5715 5715 5716 5716 5716 5716 5715 5715 5715 5714 5714 5713 5713 5713 5712 5712 5712 5712 5711 5711 5711 5711 5710 5710 5710 5709 5709 5709 5709 5708 5708 5708 5707 5707 5706
5694 5695 5697 5698 5700 5701 5702 5703 5704 5705 5705 5706 5706 5706 5706 5706 5706 5705 5705 5705 5704 5703 5703 5703 5702 5702 5702 5702 5702 5701 5701 5701 5701 5700 5700 5700 5700 5700 5699 5699 5699 5699 5698 5698
5685 5687 5688 5689 5690 5691 5692 5693 5694 5695 5695 5696 5696 5696 5696 5696 5696 5696 5696 5695 5694 5694 5693 5693 5692 5692 5692 5692 5692 5691 5691 5691 5691 5690 5690 5690 5690 5690 5690 5690 5690 5690 5690 5689
5676 5677 5679 5680 5681 5682 5683 5684 5684 5685 5685 5685 5685 5686 5686 5686 5686 5686 5685 5685 5684 5684 5683 5683 5682 5682 5682 5681 5681 5681 5681 5681 5681 5681 5680 5680 5680 5681 5681 5681 5682 5682 5682 5681
5666 5667 5669 5670 5671 5672 5673 5674 5674 5675 5675 5675 5675 5675 5676 5676 5676 5675 5675 5674 5674 5673 5672 5672 5672 5671 5671 5671 5670 5670 5670 5670 5671 5671 5670 5670 5671 5671 5672 5672 5673 5673 5673 5673
5657 5658 5659 5660 5661 5662 5663 5664 5664 5665 5665 5665 5665 5665 5665 5665 5665 5664 5664 5664 5663 5662 5661 5661 5661 5661 5660 5660 5660 5660 5660 5660 5660 5661 5661 5661 5661 5662 5663 5664 5665 5665 5665 5666
5647 5648 5649 5650 5651 5652 5653 5653 5654 5654 5654 5654 5654 5654 5655 5655 5655 5654 5653 5653 5652 5651 5651 5651 5650 5650 5650 5649 5649 5650 5650 5651 5651 5651 5652 5652 5653 5654 5654 5655 5656 5657 5657 5658
5638 5639 5640 5641 5642 5642 5643 5643 5644 5644 5644 5644 5644 5644 5644 5644 5644 5643 5643 5643 5641 5641 5640 5640 5640 5640 5640 5639 5640 5641 5641 5642 5642 5643 5643 5644 5645 5646 5646 5647 5648 5649 5649 5650
5629 5629 5630 5631 5632 5633 5634 5634 5634 5634 5634 5634 5634 5634 5634 5634 5634 5633 5633 5632 5631 5631 5630 5630 5630 5630 5630 5630 5631 5632 5632 5633 5634 5635 5636 5636 5637 5638 5639 5640 5640 5641 5641 5641
5619 5620 5621 5622 5623 5623 5624 5624 5624 5624 5624 5625 5625 5624 5624 5624 5623 5623 5623 5622 5621 5621 5620 5620 5620 5621 5621 5622 5623 5624 5625 5626 5626 5627 5628 5629 5630 5631 5631 5632 5632 5633 5633 5633
5610 5611 5612 5612 5613 5614 5614 5615 5615 5615 5615 5615 5615 5615 5614 5614 5614 5613 5613 5613 5612 5612 5611 5612 5612 5612 5613 5614 5615 5616 5617 5618 5619 5620 5620 5621 5622 5623 5624 5624 5624 5625 5625 5625
5600 5601 5602 5603 5604 5605 5605 5605 5605 5605 5605 5605 5605 5605 5605 5605 5605 5605 5604 5604 5604 5603 5603 5603 5604 5605 5606 5607 5608 5609 5609 5610 5611 5612 5613 5614 5615 5615 5616 5616 5616 5617 5617 5617
Wind_Speed
24 24 24 23 23 23 23 22 22 21 20 18 18 18 18 18 17 17 16 16 16 16 15 16 16 16 16 16 15 14 14 14 14 15 15 15 15 15 15 14 14 14 14 14
25 25 26 24 23 24 24 24 23 22 20 20 19 19 19 18 18 18 17 17 17 17 17 17 17 17 16 16 17 16 16 16 16 17 17 17 17 17 16 16 16 16 15 15
25 26 27 26 23 24 24 24 24 23 21 21 20 19 19 20 19 18 18 18 18 19 19 19 19 18 19 18 18 17 17 17 17 17 18 18 18 17 17 17 17 18 17 17
26 26 27 24 24 25 25 24 24 23 23 22 21 21 21 21 21 20 19 19 20 20 20 19 20 20 20 20 20 19 19 19 19 19 19 19 19 19 19 19 20 19 19 19
27 28 27 24 23 24 25 24 24 24 24 24 23 23 22 22 22 22 21 21 21 21 20 20 20 21 21 21 21 21 21 21 21 21 21 21 21 20 21 21 21 21 21 21
28 29 28 25 24 24 25 25 24 24 25 25 25 24 23 23 23 23 23 23 23 22 22 22 22 22 22 22 23 23 23 23 23 22 22 22 22 22 22 22 22 22 22 23
28 29 28 26 25 25 26 25 25 25 26 26 26 25 24 24 24 25 25 25 24 24 24 23 24 24 24 24 24 24 25 24 24 24 24 24 24 24 24 24 24 24 24 23
28 28 27 26 26 26 26 26 26 26 26 26 26 26 26 25 25 26 25 26 25 25 25 25 25 25 25 25 26 26 26 26 26 25 25 26 26 26 25 25 25 25 24 24
29 29 28 28 28 28 27 27 27 27 27 27 27 27 27 27 27 27 27 26 27 27 28 28 28 27 27 27 27 27 27 28 27 27 27 27 27 27 26 26 26 26 26 25
30 30 30 30 30 30 29 29 28 28 28 28 28 28 28 29 29 29 29 29 29 29 29 29 29 29 29 29 28 28 28 29 28 28 28 27 27 27 26 26 26 26 26 26
30 30 31 30 30 30 30 29 28 28 28 28 28 28 29 30 30 30 31 32 31 30 31 30 30 30 30 30 30 29 28 29 29 29 28 28 28 27 27 26 26 26 26 26
32 32 32 31 31 31 31 30 29 29 29 29 29 29 30 30 31 32 32 32 32 31 31 31 31 31 31 31 31 30 30 30 29 29 29 28 28 27 27 26 26 26 26 26
34 32 32 31 31 31 31 31 30 30 30 30 30 31 30 30 31 31 31 31 31 31 30 31 31 32 32 32 31 31 31 30 30 30 29 28 28 27 27 26 26 27 27 27
33 33 33 32 32 31 31 31 32 32 31 31 31 31 30 29 30 30 30 30 30 29 29 29 30 31 31 31 31 31 31 31 30 29 29 28 28 27 27 26 26 26 26 26
33 34 33 32 33 32 32 32 32 32 32 31 32 31 30 29 30 29 29 29 29 29 29 29 30 30 31 31 31 31 31 30 29 29 29 28 28 27 27 26 26 26 25 25
32 33 32 32 31 31 33 33 33 33 33 32 32 31 31 30 29 29 29 29 29 29 29 30 30 30 31 32 31 31 31 30 30 29 29 29 29 28 27 27 26 26 25 25
32 32 32 31 31 31 32 33 33 33 33 33 33 33 32 31 30 30 30 30 30 31 31 31 31 31 32 32 32 31 31 31 30 30 30 30 30 29 28 27 26 25 25 26
32 32 32 31 31 31 32 32 33 33 33 33 33 33 32 31 30 30 30 31 31 32 33 33 32 32 32 32 32 32 31 31 31 31 30 30 30 30 29 28 27 26 25 26
32 33 33 32 32 32 32 32 32 32 33 33 33 33 33 32 31 32 31 31 32 32 33 33 33 33 32 33 34 33 32 31 31 31 30 30 30 29 29 28 27 25 24 24
31 32 32 32 32 32 33 33 33 33 33 33 33 33 33 33 33 32 33 33 33 32 33 33 33 33 34 34 34 33 32 31 30 30 30 30 30 29 28 27 26 25 25 25
31 31 32 31 32 33 33 33 33 33 33 33 33 33 32 32 32 33 33 33 32 32 32 33 33 33 33 33 33 32 31 31 30 29 29 29 28 28 28 27 26 26 25 24
31 31 31 31 32 32 33 33 33 33 33 33 33 33 33 32 32 33 33 33 33 33 32 32 32 32 32 33 32 31 30 29 29 28 28 27 27 27 27 27 27 27 26 25
31 31 31 31 31 31 31 31 32 32 32 32 32 32 32 32 32 32 32 32 32 32 32 31 31 32 31 31 30 29 29 28 27 27 26 26 26 26 26 26 26 27 26 26
31 31 31 31 31 30 30 30 31 31 31 30 30 31 31 31 30 30 30 30 30 31 31 30 30 30 30 29 28 27 26 26 26 26 26 26 25 25 25 25 26 26 26 26
30 31 31 31 31 31 31 30 30 30 30 30 31 31 30 30 30 29 29 29 28 29 29 28 28 28 28 27 26 26 25 25 25 26 26 25 25 25 25 26 26 26 27 27
31 30 31 31 30 30 30 30 30 30 30 30 30 30 30 29 29 28 28 28 27 27 26 26 25 26 26 25 25 25 25 25 25 25 25 24 25 25 26 26 26 26 27 27
31 30 30 30 30 30 30 30 30 29 30 30 30 29 29 28 27 26 25 25 25 24 24 24 25 25 26 25 25 25 25 24 24 24 24 24 25 25 26 26 26 26 26 26
Wind_Direction
256 256 256 257 257 257 260 261 263 264 266 267 267 268 267 267 267 267 269 271 273 273 274 278 281 283 283 283 287 290 292 294 293 293 291 290 291 294 294 294 294 293 289 288
257 257 257 257 256 256 258 261 261 263 264 265 266 265 265 266 266 267 269 271 273 272 271 274 276 278 280 282 284 286 287 289 290 291 291 290 289 289 291 292 291 290 289 289
259 259 259 256 256 257 258 259 260 262 265 265 266 268 267 266 267 269 270 271 273 274 273 273 275 277 278 281 282 283 286 288 288 289 290 289 288 288 290 289 290 287 286 288
261 260 260 261 258 258 259 260 261 264 265 266 267 268 267 266 267 269 270 270 272 275 276 277 276 277 278 279 281 282 284 287 287 286 286 286 286 287 287 287 287 288 284 284
262 261 261 262 263 261 261 260 261 264 265 266 267 267 267 267 267 268 270 271 271 273 275 275 275 276 277 278 278 280 281 282 283 284 283 284 285 285 285 285 285 285 285 286
263 263 264 264 263 261 262 261 261 263 266 266 266 266 267 268 267 268 270 271 272 272 275 275 275 275 275 275 275 277 279 280 280 280 281 283 284 284 284 285 284 283 284 285
262 264 264 265 263 262 262 262 262 265 267 267 265 267 268 269 268 269 269 271 272 273 275 277 276 275 275 274 274 275 277 278 279 279 279 280 283 284 283 283 283 282 283 283
260 263 265 263 261 261 262 262 262 264 266 267 266 267 268 268 268 268 269 271 271 272 274 276 275 275 276 276 276 276 277 278 278 278 279 280 281 282 283 283 282 280 280 280
259 261 262 261 261 261 261 262 262 264 267 268 268 267 267 267 268 269 269 269 270 271 272 274 275 275 276 276 276 277 277 278 278 279 279 280 280 280 281 281 280 279 278 278
257 258 259 260 261 261 261 262 263 265 268 269 270 269 269 268 269 270 270 271 270 270 271 272 274 274 274 276 276 277 278 278 278 278 278 278 279 280 280 278 277 278 277 276
256 256 258 259 260 261 262 262 264 265 267 270 271 271 272 272 272 271 271 271 271 270 270 271 273 273 275 275 276 277 278 279 278 278 278 279 278 278 278 276 276 277 276 276
257 257 258 259 260 262 262 262 263 266 267 270 271 272 273 273 274 273 272 271 271 269 269 270 271 272 273 273 274 276 278 279 279 278 278 278 277 277 277 276 277 278 277 276
259 259 259 259 260 262 262 262 264 266 268 270 270 271 272 273 275 274 274 272 271 270 269 270 271 271 272 272 273 275 276 278 278 278 276 276 276 276 277 277 277 277 277 276
258 260 260 259 260 261 262 262 263 266 268 269 270 271 272 273 274 273 272 271 271 271 271 272 272 271 272 273 273 275 276 277 278 278 276 274 274 275 277 277 276 275 275 275
259 260 261 261 262 262 261 261 263 266 267 269 270 271 272 272 272 272 271 271 271 272 273 273 272 271 271 273 274 274 275 275 276 276 275 273 273 274 275 276 276 274 273 273
258 259 260 261 262 263 263 263 264 266 268 269 269 272 273 272 271 271 272 272 272 272 273 273 272 271 271 272 274 273 273 274 275 275 273 273 273 273 273 274 275 275 274 273
256 257 259 261 262 263 262 263 263 265 267 268 269 270 271 271 271 271 272 272 273 272 272 273 273 272 273 273 273 273 273 273 273 273 272 271 271 272 273 274 274 274 273 273
257 258 258 260 261 261 262 263 264 265 266 267 270 271 271 272 271 271 272 273 273 272 272 273 273 273 272 271 272 272 272 273 273 272 271 269 269 270 271 272 273 273 273 273
258 258 258 259 259 261 263 264 265 266 266 267 269 270 270 271 272 272 273 274 274 274 273 273 273 272 271 270 270 271 272 272 272 272 270 268 268 269 269 269 271 271 272 273
257 258 259 259 261 262 263 264 266 266 267 268 268 269 269 270 272 272 272 273 274 275 273 272 272 272 271 271 271 271 272 272 270 270 269 268 267 266 266 267 268 269 271 273
259 259 260 261 263 265 265 266 267 267 267 267 268 268 268 270 271 272 273 273 273 275 274 273 271 270 270 271 271 270 270 270 269 269 268 267 265 264 264 265 266 269 271 272
261 261 261 263 265 266 267 266 266 267 268 268 268 268 269 270 272 274 274 274 273 273 274 271 269 269 271 270 269 268 268 268 267 267 266 265 264 263 262 263 264 266 267 268
263 262 262 262 264 266 267 267 268 268 268 269 269 270 272 272 273 275 276 275 273 273 273 272 270 270 270 269 268 267 266 265 265 265 264 263 263 262 261 263 264 266 267 268
263 263 263 262 264 266 268 268 268 268 267 268 270 271 273 274 274 275 275 273 273 272 273 272 270 269 268 268 267 265 264 262 261 263 263 262 262 261 262 263 265 266 268 270
263 263 263 264 265 266 267 267 268 268 267 268 271 272 273 274 274 275 275 273 273 273 273 271 268 266 265 265 264 262 261 261 261 262 262 262 262 262 263 264 266 267 269 270
262 263 265 264 264 266 268 268 269 270 270 270 271 271 271 272 272 273 274 274 273 273 272 270 268 265 263 262 261 260 260 261 263 263 262 262 263 263 264 265 267 268 269 271
261 263 264 264 265 267 267 268 269 270 271 271 270 269 269 268 268 271 272 272 272 272 270 268 266 264 262 262 262 261 260 260 261 261 262 263 264 266 266 266 267 269 270 271